Natchitoches, LA

4:34 PM CDT on June 25, 2017 (GMT -0500)
Natchitoches Regional

Weather History for KIER - June, 2013

Change the Weather History Date:

Thursday, June 27, 2013

  Actual Average Record
Temperature  
Mean Temperature 84 °F -  
Max Temperature 96 °F 91 °F 104 °F (2012)
Min Temperature 73 °F 70 °F 56 °F (1974)
Cooling Degree Days 20    
Growing Degree Days 34 (Base 50)    
Moisture  
Dew Point 73 °F    
Average Humidity 73    
Maximum Humidity 98    
Minimum Humidity 40    
Precipitation  
Precipitation 0.00 in - - ()
Sea Level Pressure  
Sea Level Pressure 29.98 in    
Wind  
Wind Speed 4 mph (West)    
Max Wind Speed 12 mph    
Max Gust Speed 16 mph    
Visibility 9 miles    
Events      
Averages and records for this station are not official NWS values.
T = Trace of Precipitation, MM = Missing Value Source: NWS Daily Summary

Daily Weather History Graph

Daily Weather History Graph

Search for Another Location

Airport or City:

Trip Planner

Search our weather history database for the weather conditions in past years. The results will help you decide how hot, cold, wet, or windy it might be!

Date:

Astronomy

Jun. 27, 2013 Rise Set
Actual Time 6:09 AM CDT 8:21 PM CDT
Civil Twilight 5:41 AM CDT 8:49 PM CDT
Nautical Twilight 5:06 AM CDT 9:24 PM CDT
Astronomical Twilight 4:29 AM CDT 10:01 PM CDT
Moon 11:40 PM CDT (6/27) 10:52 AM CDT (6/27)
Length of Visible Light 15h 08m
Length of Day
14h 12m
Waning Gibbous, 76% of the Moon is Illuminated
Jun 27
Waning Gibbous
Jun 29
Last Quarter
Jul 8
New
Jul 15
First Quarter
Jul 22
Full

Hourly Weather History & Observations

Time (CDT) Temp. Heat Index Dew Point Humidity Pressure Visibility Wind Dir Wind Speed Gust Speed Precip Events Conditions
12:15 AM 79.2 °F - 74.3 °F 85% 29.96 in 10.0 mi SW 5.8 mph - N/A   Clear
12:35 AM 79.0 °F - 73.9 °F 84% 29.97 in 10.0 mi SW 6.9 mph - N/A   Clear
1:15 AM 77.9 °F - 73.6 °F 86% 29.97 in 10.0 mi SW 5.8 mph - N/A   Clear
1:35 AM 77.9 °F - 73.4 °F 86% 29.97 in 10.0 mi SSW 4.6 mph - N/A   Clear
1:55 AM 77.2 °F - 73.4 °F 88% 29.97 in 10.0 mi SSW 4.6 mph - N/A   Clear
2:15 AM 76.6 °F - 73.4 °F 90% 29.98 in 10.0 mi SW 3.5 mph - N/A   Clear
2:35 AM 76.3 °F - 73.6 °F 91% 29.98 in 10.0 mi SSW 3.5 mph - N/A   Clear
2:55 AM 76.1 °F - 73.6 °F 92% 29.98 in 10.0 mi SSW 4.6 mph - N/A   Clear
3:15 AM 75.9 °F - 73.6 °F 92% 29.99 in 10.0 mi SSW 3.5 mph - N/A   Clear
3:35 AM 75.7 °F - 73.8 °F 94% 29.99 in 10.0 mi SSW 3.5 mph - N/A   Clear
3:55 AM 75.4 °F - 73.9 °F 95% 30.00 in 10.0 mi SSW 3.5 mph - N/A   Clear
4:15 AM 75.2 °F - 73.8 °F 95% 30.00 in 7.0 mi SSW 3.5 mph - N/A   Clear
4:35 AM 74.8 °F - 73.8 °F 96% 30.01 in 7.0 mi Calm Calm - N/A   Clear
4:55 AM 74.7 °F - 73.8 °F 97% 30.01 in 7.0 mi SW 3.5 mph - N/A   Clear
5:15 AM 74.5 °F - 73.6 °F 97% 30.01 in 7.0 mi Calm Calm - N/A   Clear
5:35 AM 74.3 °F - 73.4 °F 97% 30.01 in 7.0 mi Calm Calm - N/A   Clear
5:55 AM 74.3 °F - 73.4 °F 97% 30.01 in 7.0 mi Calm Calm - N/A   Clear
6:15 AM 73.8 °F - 73.2 °F 98% 30.02 in 5.0 mi Calm Calm - N/A   Clear
6:35 AM 73.2 °F - 72.7 °F 98% 30.03 in 4.0 mi Calm Calm - N/A   Clear
6:55 AM 74.3 °F - 73.4 °F 97% 30.03 in 5.0 mi Calm Calm - N/A   Clear
7:15 AM 75.4 °F - 73.8 °F 95% 30.03 in 5.0 mi Calm Calm - N/A   Clear
7:35 AM 76.5 °F - 74.1 °F 92% 30.03 in 7.0 mi Calm Calm - N/A   Clear
7:55 AM 77.7 °F - 74.7 °F 90% 30.04 in 7.0 mi SW 3.5 mph - N/A   Clear
8:15 AM 79.3 °F - 74.8 °F 86% 30.04 in 10.0 mi WSW 3.5 mph - N/A   Clear
8:35 AM 80.8 °F 86.7 °F 75.4 °F 84% 30.03 in 10.0 mi West 5.8 mph - N/A   Scattered Clouds
8:55 AM 81.7 °F 88.3 °F 75.2 °F 81% 30.03 in 10.0 mi West 5.8 mph - N/A   Scattered Clouds
9:15 AM 82.4 °F 88.7 °F 74.3 °F 76% 30.03 in 10.0 mi WSW 8.1 mph - N/A   Scattered Clouds
9:35 AM 83.7 °F 90.4 °F 73.9 °F 72% 30.03 in 10.0 mi WSW 6.9 mph - N/A   Clear
9:55 AM 84.6 °F 91.4 °F 73.4 °F 69% 30.03 in 10.0 mi SW 8.1 mph - N/A   Clear
10:15 AM 85.1 °F 91.8 °F 72.9 °F 67% 30.03 in 10.0 mi WSW 9.2 mph - N/A   Clear
10:35 AM 86.9 °F 93.7 °F 72.5 °F 62% 30.02 in 10.0 mi West 11.5 mph 16.1 mph N/A   Clear
10:55 AM 86.9 °F 94.5 °F 73.6 °F 64% 30.01 in 10.0 mi WSW 5.8 mph - N/A   Clear
11:15 AM 87.8 °F 96.1 °F 73.6 °F 63% 30.01 in 10.0 mi SW 4.6 mph - N/A   Clear
11:35 AM 89.1 °F 97.5 °F 73.8 °F 60% 30.01 in 10.0 mi WNW 9.2 mph - N/A   Clear
11:55 AM 89.6 °F 98.2 °F 73.6 °F 59% 30.00 in 10.0 mi WSW 5.8 mph - N/A   Clear
12:15 PM 90.1 °F 97.8 °F 72.3 °F 56% 30.00 in 10.0 mi WNW 8.1 mph - N/A   Clear
12:35 PM 90.5 °F 98.1 °F 72.3 °F 55% 29.99 in 10.0 mi West 6.9 mph - N/A   Clear
12:55 PM 91.6 °F 98.8 °F 71.8 °F 52% 29.99 in 10.0 mi West 6.9 mph - N/A   Clear
1:15 PM 91.9 °F 100.1 °F 72.5 °F 53% 29.98 in 10.0 mi WNW 5.8 mph - N/A   Clear
1:35 PM 92.1 °F 100.5 °F 72.5 °F 53% 29.98 in 10.0 mi West 3.5 mph - N/A   Clear
1:55 PM 93.6 °F 100.1 °F 70.3 °F 47% 29.98 in 10.0 mi West 6.9 mph - N/A   Clear
2:15 PM 93.9 °F 99.7 °F 69.8 °F 45% 29.98 in 10.0 mi Calm Calm - N/A   Clear
2:35 PM 93.4 °F 99.7 °F 70.5 °F 47% 29.97 in 10.0 mi West 3.5 mph - N/A   Clear
2:55 PM 94.6 °F 101.8 °F 71.1 °F 46% 29.96 in 10.0 mi NW 6.9 mph - N/A   Clear
3:15 PM 95.2 °F 102.9 °F 71.2 °F 46% 29.96 in 10.0 mi NW 9.2 mph - N/A   Clear
3:35 PM 94.8 °F 101.5 °F 70.7 °F 45% 29.96 in 10.0 mi North 5.8 mph - N/A   Clear
3:55 PM 94.5 °F 101.4 °F 71.1 °F 46% 29.95 in 10.0 mi NW 5.8 mph - N/A   Clear
4:15 PM 95.7 °F 103.4 °F 71.4 °F 45% 29.94 in 10.0 mi WNW 4.6 mph - N/A   Clear
4:35 PM 95.2 °F 102.9 °F 71.2 °F 46% 29.94 in 10.0 mi NNW 4.6 mph - N/A   Clear
4:55 PM 96.1 °F 104.2 °F 71.4 °F 45% 29.94 in 10.0 mi NW 6.9 mph - N/A   Clear
5:15 PM 95.5 °F 103.0 °F 71.1 °F 45% 29.94 in 10.0 mi WNW 3.5 mph - N/A   Clear
5:35 PM 95.2 °F 102.3 °F 70.5 °F 45% 29.93 in 10.0 mi WNW 3.5 mph - N/A   Clear
5:55 PM 95.9 °F 100.7 °F 68.4 °F 40% 29.93 in 10.0 mi WNW 4.6 mph - N/A   Clear
6:15 PM 95.7 °F 101.5 °F 69.3 °F 42% 29.92 in 10.0 mi Calm Calm - N/A   Clear
6:35 PM 94.6 °F 100.5 °F 69.6 °F 44% 29.92 in 10.0 mi Calm Calm - N/A   Clear
6:55 PM 94.3 °F 99.8 °F 69.4 °F 44% 29.92 in 10.0 mi Calm Calm - N/A   Clear
7:15 PM 92.3 °F 98.6 °F 70.9 °F 49% 29.92 in 10.0 mi Calm Calm - N/A   Clear
7:35 PM 90.7 °F 99.6 °F 73.6 °F 57% 29.92 in 10.0 mi Calm Calm - N/A   Clear
7:55 PM 87.1 °F 95.9 °F 74.7 °F 66% 29.92 in 10.0 mi Calm Calm - N/A   Clear
8:15 PM 83.8 °F 91.1 °F 74.3 °F 73% 29.92 in 10.0 mi Calm Calm - N/A   Clear
8:35 PM 82.4 °F 89.0 °F 74.7 °F 77% 29.92 in 10.0 mi Calm Calm - N/A   Clear
8:55 PM 81.3 °F 87.6 °F 75.2 °F 82% 29.92 in 10.0 mi Calm Calm - N/A   Clear
9:15 PM 80.6 °F 86.2 °F 75.4 °F 84% 29.92 in 10.0 mi Calm Calm - N/A   Clear
9:35 PM 79.2 °F - 75.4 °F 88% 29.92 in 10.0 mi Calm Calm - N/A   Clear
9:55 PM 78.3 °F - 75.0 °F 90% 29.91 in 10.0 mi Calm Calm - N/A   Clear
10:15 PM 77.9 °F - 75.4 °F 92% 29.92 in 10.0 mi Calm Calm - N/A   Clear
10:35 PM 76.8 °F - 75.0 °F 94% 29.93 in 10.0 mi Calm Calm - N/A   Clear
10:55 PM 78.1 °F - 74.1 °F 88% 29.94 in 10.0 mi Calm Calm - N/A   Clear
11:15 PM 77.2 °F - 73.6 °F 89% 29.95 in 10.0 mi Calm Calm - N/A   Clear
11:35 PM 76.3 °F - 73.6 °F 91% 29.96 in 10.0 mi Calm Calm - N/A   Clear
11:55 PM 75.4 °F - 73.4 °F 94% 29.95 in 10.0 mi Calm Calm - N/A   Clear